SCP
-0 -0 -0 -0 -0 -0 -0 -0 -0 -0 -0 -0 0 0 0 0 0 0 0 0 0 0 0 0 0 0 0 0 0 0 0 0
-0 -0 -0 -0 -0 -0 -0 -0 -0 -0 0 0 0 0 0 0 0 0 0 0 0 0 0 0 0 0 0 0 0 0 0 0
-0 -0 -0 -0 -0 -0 -0 -0 -0 -0 0 0 0 0 0 0 0 0 0 0 0 0 0 0 0 0 0 0 0 0 0 0
-0 -0 -0 -0 -0 -0 -0 -0 0 0 0 0 0 0 0 0 0 0 0 0 0 0 0 0 0 0 0 0 0 0 0 0
-0 -0 -0 -0 -0 -0 -0 -0 0 0 -0 -0 -0 -0 0 0 0 0 0 0 0 0 0 0 0 0 0 0 0 0 0 0
-0 -0 -0 -0 -0 -0 -0 -0 -0 -0 -0 -0 -0 -0 -0 0 0 0 0 0 0 0 0 0 0 0 0 0 0 0 0 0
-0 -0 -0 -0 -0 0 0 -0 0 0 0 0 -0 -0 -0 0 0 0 0 0 0 0 0 0 0 0 0 0 0 1 0 0
-0 0 -0 0 0 -0 0 0 0 0 0 0 0 0 0 0 0 0 0 0 0 0 0 0 0 0 0 0 0 0 0 0
-0 -0 0 0 -0 -0 0 -0 0 0 0 0 0 0 0 0 0 0 0 0 0 0 0 0 0 0 0 0 0 0 0 0
0 0 -0 0 -0 -0 0 0 0 0 0 0 0 0 0 0 0 0 0 0 0 0 0 0 0 0 0 0 0 0 0 0
0 0 -0 0 0 0 0 0 0 0 0 0 0 0 0 0 0 0 0 0 0 0 0 0 0 0 0 0 0 0 0 0
0 0 0 0 0 0 0 0 0 0 0 0 0 0 0 0 0 0 0 0 0 0 0 0 0 0 0 0 0 0 0 0
-0 0 0 0 0 0 0 0 0 0 0 0 0 0 0 0 0 0 0 0 0 0 0 0 0 0 0 0 0 0 0 0
0 0 0 0 0 0 0 1 1 1 0 0 0 0 0 0 0 0 0 0 0 0 0 0 0 0 0 0 0 0 0 0
0 0 0 1 0 1 1 1 1 0 0 0 0 0 0 0 0 0 0 0 0 0 0 0 0 0 0 0 0 0 0 0
1 1 2 2 5 4 3 2 3 3 2 1 0 0 0 0 0 0 0 0 0 0 0 0 0 0 0 0 0 0 0 0
3 4 5 5 5 4 5 3 3 1 3 0 0 0 0 0 0 0 0 0 0 0 0 0 0 0 0 0 0 0 0 0
3 3 3 5 4 4 4 3 2 1 0 0 0 0 0 0 0 0 0 0 0 0 0 0 0 0 0 0 0 0 0 0
1 1 1 1 1 1 1 1 1 1 0 0 0 0 0 0 0 0 0 0 0 0 0 0 0 0 0 0 0 0 0 0
Wind_Speed_500mb
25 23 23 22 21 20 18 17 16 14 13 12 10 7 5 3 2 2 4 5 6 9 11 13 14 15 15 15 16 18 20 22
24 23 23 23 22 21 19 19 18 15 13 10 7 6 5 4 3 2 2 4 8 10 9 8 10 11 13 18 20 22 25 27
24 20 24 25 25 23 22 19 16 14 12 11 9 8 6 4 5 3 4 4 2 4 7 9 12 16 19 23 26 30 34 36
23 23 22 23 23 21 19 17 15 14 12 10 8 7 6 5 4 3 2 1 4 8 12 18 22 27 30 34 38 41 46 48
22 20 21 24 20 18 17 17 17 15 13 11 10 7 6 4 4 3 3 8 13 17 22 26 31 36 41 45 49 50 50 57
22 22 23 22 21 19 18 18 18 17 14 11 9 8 13 9 5 12 15 20 22 29 32 36 42 47 50 50 38 40 49 51
22 23 24 24 22 23 19 20 15 11 7 4 3 4 9 11 12 12 18 31 34 35 44 39 43 52 45 44 42 48 53 53
18 22 26 26 26 22 19 13 13 10 11 9 7 9 9 3 11 10 16 23 24 35 33 35 42 40 45 48 52 51 55 59
19 21 26 27 27 21 17 15 14 12 10 5 14 9 10 5 14 14 19 23 27 30 36 39 44 48 52 50 56 58 58 60
23 24 26 26 24 23 27 17 14 14 10 19 8 21 20 9 24 20 23 26 30 36 40 44 48 51 53 57 56 58 59 59
25 26 26 27 28 23 24 20 18 18 20 15 13 17 19 21 34 35 35 32 35 39 57 59 50 53 52 55 56 56 59 60
31 26 30 30 27 27 23 23 18 17 16 17 16 27 29 33 38 41 43 44 47 65 71 51 47 50 51 52 57 56 56 56
34 35 33 32 31 28 26 24 21 24 21 19 19 32 32 37 43 47 52 55 66 68 52 42 45 47 51 51 53 52 52 53
37 33 34 33 33 32 26 26 24 34 23 23 30 33 37 36 42 47 56 58 62 50 36 37 40 46 49 49 48 49 48 47
34 34 33 30 32 31 31 28 23 22 22 18 18 31 34 38 45 51 50 48 46 34 36 38 39 41 44 43 42 45 39 42
27 31 31 32 38 35 34 40 42 38 26 25 30 33 34 40 46 52 53 51 36 37 40 32 41 37 41 40 43 42 41 30
24 22 17 21 37 33 32 23 21 16 27 19 19 32 39 41 54 49 47 40 38 40 29 38 39 38 42 35 41 37 29 47
8 8 17 25 24 24 21 28 32 40 33 21 27 36 42 45 44 44 37 29 38 34 28 36 32 34 39 35 30 27 21 16
9 9 18 24 22 19 21 13 15 14 24 30 33 36 39 41 37 25 26 26 28 31 29 29 30 31 32 34 41 34 37 45
Wind_Direction_500mb
151 164 163 168 165 163 162 168 175 179 189 199 208 213 219 231 257 307 326 337 355 350 339 329 323 323 323 327 332 331 330 328
157 172 173 173 168 166 167 172 179 183 189 194 200 209 218 238 262 287 328 339 326 323 331 342 345 339 331 325 324 321 321 320
157 162 173 169 167 166 171 173 176 181 185 193 199 212 215 216 203 198 278 306 358 356 337 331 325 320 316 313 311 310 310 309
160 165 164 168 167 168 168 172 178 185 191 195 196 200 200 202 201 216 159 277 297 308 317 322 322 318 315 312 310 309 308 305
163 174 173 173 175 172 176 181 185 190 190 186 184 179 173 168 156 128 272 293 313 314 313 313 314 313 311 309 309 312 314 314
168 175 174 175 181 171 191 193 190 187 185 176 175 163 89 62 339 319 287 298 306 309 310 313 316 314 313 316 321 313 311 308
176 183 181 176 182 168 182 215 175 186 170 142 136 175 53 220 227 226 301 325 330 327 322 331 320 321 328 316 303 308 301 295
176 185 186 180 179 176 178 178 179 193 197 195 194 160 259 220 280 319 302 320 316 316 320 306 314 308 300 300 302 299 295 293
168 174 178 181 181 179 190 178 193 191 189 188 218 251 299 311 287 299 313 302 314 306 307 313 307 301 305 298 300 298 296 292
176 176 180 185 183 188 173 194 188 193 202 220 234 267 246 283 271 307 308 320 313 312 310 308 306 304 300 301 298 296 295 291
184 184 185 191 202 196 189 191 202 193 230 219 224 248 275 274 295 305 314 309 314 310 304 307 305 305 303 304 302 299 297 296
197 196 196 197 207 198 205 217 209 221 224 214 232 270 279 291 302 311 312 314 308 302 309 311 309 308 306 304 302 302 300 297
205 206 206 209 216 219 211 222 218 225 214 219 239 273 284 292 299 305 306 305 302 307 315 312 313 309 307 307 307 306 304 301
208 210 213 213 214 224 215 218 215 227 224 230 252 265 280 288 296 303 310 310 309 317 316 317 309 312 311 311 310 306 302 304
215 215 217 223 218 222 220 215 219 228 223 235 246 262 281 291 295 302 310 312 320 320 317 313 315 314 314 312 312 313 312 305
217 223 218 220 220 208 216 221 227 235 229 228 260 272 282 288 300 311 316 316 320 322 319 318 317 321 329 340 320 311 314 325
226 218 209 210 227 216 218 217 226 231 216 242 253 275 284 302 310 319 322 325 313 324 331 315 331 337 329 320 319 318 330 333
196 203 223 201 227 218 225 236 239 229 269 257 273 276 302 310 315 319 326 334 326 340 331 339 337 334 325 323 328 329 320 296
141 153 222 214 224 252 242 250 219 235 237 225 260 292 304 311 321 325 335 337 340 343 339 336 329 338 318 324 344 345 317 314
Wind_Speed_850mb
25 23 23 22 21 20 18 17 16 14 13 12 10 7 5 3 2 2 4 5 6 9 11 13 14 15 15 15 16 18 20 22
24 23 23 23 22 21 19 19 18 15 13 10 7 6 5 4 3 2 2 4 8 10 9 8 10 11 13 18 20 22 25 27
24 20 24 25 25 23 22 19 16 14 12 11 9 8 6 4 5 3 4 4 2 4 7 9 12 16 19 23 26 30 34 36
23 23 22 23 23 21 19 17 15 14 12 10 8 7 6 5 4 3 2 1 4 8 12 18 22 27 30 34 38 41 46 48
22 20 21 24 20 18 17 17 17 15 13 11 10 7 6 4 4 3 3 8 13 17 22 26 31 36 41 45 49 50 50 57
22 22 23 22 21 19 18 18 18 17 14 11 9 8 13 9 5 12 15 20 22 29 32 36 42 47 50 50 38 40 49 51
22 23 24 24 22 23 19 20 15 11 7 4 3 4 9 11 12 12 18 31 34 35 44 39 43 52 45 44 42 48 53 53
18 22 26 26 26 22 19 13 13 10 11 9 7 9 9 3 11 10 16 23 24 35 33 35 42 40 45 48 52 51 55 59
19 21 26 27 27 21 17 15 14 12 10 5 14 9 10 5 14 14 19 23 27 30 36 39 44 48 52 50 56 58 58 60
23 24 26 26 24 23 27 17 14 14 10 19 8 21 20 9 24 20 23 26 30 36 40 44 48 51 53 57 56 58 59 59
25 26 26 27 28 23 24 20 18 18 20 15 13 17 19 21 34 35 35 32 35 39 57 59 50 53 52 55 56 56 59 60
31 26 30 30 27 27 23 23 18 17 16 17 16 27 29 33 38 41 43 44 47 65 71 51 47 50 51 52 57 56 56 56
34 35 33 32 31 28 26 24 21 24 21 19 19 32 32 37 43 47 52 55 66 68 52 42 45 47 51 51 53 52 52 53
37 33 34 33 33 32 26 26 24 34 23 23 30 33 37 36 42 47 56 58 62 50 36 37 40 46 49 49 48 49 48 47
34 34 33 30 32 31 31 28 23 22 22 18 18 31 34 38 45 51 50 48 46 34 36 38 39 41 44 43 42 45 39 42
27 31 31 32 38 35 34 40 42 38 26 25 30 33 34 40 46 52 53 51 36 37 40 32 41 37 41 40 43 42 41 30
24 22 17 21 37 33 32 23 21 16 27 19 19 32 39 41 54 49 47 40 38 40 29 38 39 38 42 35 41 37 29 47
8 8 17 25 24 24 21 28 32 40 33 21 27 36 42 45 44 44 37 29 38 34 28 36 32 34 39 35 30 27 21 16
9 9 18 24 22 19 21 13 15 14 24 30 33 36 39 41 37 25 26 26 28 31 29 29 30 31 32 34 41 34 37 45
Wind_Direction_850mb
151 164 163 168 165 163 162 168 175 179 189 199 208 213 219 231 257 307 326 337 355 350 339 329 323 323 323 327 332 331 330 328
157 172 173 173 168 166 167 172 179 183 189 194 200 209 218 238 262 287 328 339 326 323 331 342 345 339 331 325 324 321 321 320
157 162 173 169 167 166 171 173 176 181 185 193 199 212 215 216 203 198 278 306 358 356 337 331 325 320 316 313 311 310 310 309
160 165 164 168 167 168 168 172 178 185 191 195 196 200 200 202 201 216 159 277 297 308 317 322 322 318 315 312 310 309 308 305
163 174 173 173 175 172 176 181 185 190 190 186 184 179 173 168 156 128 272 293 313 314 313 313 314 313 311 309 309 312 314 314
168 175 174 175 181 171 191 193 190 187 185 176 175 163 89 62 339 319 287 298 306 309 310 313 316 314 313 316 321 313 311 308
176 183 181 176 182 168 182 215 175 186 170 142 136 175 53 220 227 226 301 325 330 327 322 331 320 321 328 316 303 308 301 295
176 185 186 180 179 176 178 178 179 193 197 195 194 160 259 220 280 319 302 320 316 316 320 306 314 308 300 300 302 299 295 293
168 174 178 181 181 179 190 178 193 191 189 188 218 251 299 311 287 299 313 302 314 306 307 313 307 301 305 298 300 298 296 292
176 176 180 185 183 188 173 194 188 193 202 220 234 267 246 283 271 307 308 320 313 312 310 308 306 304 300 301 298 296 295 291
184 184 185 191 202 196 189 191 202 193 230 219 224 248 275 274 295 305 314 309 314 310 304 307 305 305 303 304 302 299 297 296
197 196 196 197 207 198 205 217 209 221 224 214 232 270 279 291 302 311 312 314 308 302 309 311 309 308 306 304 302 302 300 297
205 206 206 209 216 219 211 222 218 225 214 219 239 273 284 292 299 305 306 305 302 307 315 312 313 309 307 307 307 306 304 301
208 210 213 213 214 224 215 218 215 227 224 230 252 265 280 288 296 303 310 310 309 317 316 317 309 312 311 311 310 306 302 304
215 215 217 223 218 222 220 215 219 228 223 235 246 262 281 291 295 302 310 312 320 320 317 313 315 314 314 312 312 313 312 305
217 223 218 220 220 208 216 221 227 235 229 228 260 272 282 288 300 311 316 316 320 322 319 318 317 321 329 340 320 311 314 325
226 218 209 210 227 216 218 217 226 231 216 242 253 275 284 302 310 319 322 325 313 324 331 315 331 337 329 320 319 318 330 333
196 203 223 201 227 218 225 236 239 229 269 257 273 276 302 310 315 319 326 334 326 340 331 339 337 334 325 323 328 329 320 296
141 153 222 214 224 252 242 250 219 235 237 225 260 292 304 311 321 325 335 337 340 343 339 336 329 338 318 324 344 345 317 314